STARLINK-34284, 64212

Orbit data source: Space-Track

STARLINK-34284, 64212 is a payload satellite owned by SpaceX/Seattle (US) in LEO that was launched on Sat, 31 May 2025 UTC via an FALCON 9 launch vehicle from the Air Force Western Test Range (AFWTR). Payload-class satellites include a variety of spacecraft equipped with specific instruments for various scientific and technological missions. These include communications satellites like Starlink; space stations such as the ISS; scientific satellites like the Hubble; Earth observation satellites from companies like Planet Labs, Umbra, and HawkEye 360; GPS; miniature CubeSats for education and research; and military/defense satellites.

Loading next visibility...
Identifier
64212, 2025-117K
Orbit
LEO
Last TLE update
12 hours ago
Origin
Manufacturer
SpaceX/Seattle
Mission
Operational Commercial Communications
Bus & Motor
STARLINK V2MO, Unknown motor
Mass
575 kg wet, ~530 kg dry
Launch date (UTC)
2025-05-31 (2 months ago)
Launch vehicle
FALCON 9
Launch site
Air Force Western Test Range (AFWTR)
Object type
Payload
Rocket body
Debris
Shape & HBR
Box + 1 Pan, 14.5 m
Radar Cross Section
41.120 m², Large (>1 m²)

Expand to show TLE details & history

TLE from 12 hours ago
0 STARLINK-34284
1 64212U 25117K   25211.25002315  .00072647  00000-0  18120-2 0  9990
2 64212  53.1591 354.4024 0001141 100.1432  16.4700 15.39567607  9423
Epoch: 2025-07-30T06:00Z
TLE epoch observation values (Epoch: 2025-07-30T06:00:02Z)
Latitude
45.82662°
Longitude
86.1887°
Altitude
451.507 km
Speed
7.648 km/s
True Right ascension
08h 17m 18s
True Declination
45° 38' 49"
Sunlit
Object was in daylight at epoch
Visualization orbit readout
Latitude
-50.80371°
Longitude
-112.03854°
Altitude
465.52 km
Speed
7.633 km/s
Apparent Right ascension
19h 08m 28s
Apparent Declination
-45° 22' 21"
Sunlit
Object is in full shadow
Visualization observer readout
Local Sidereal Time
07:12:03
Azimuth
173.398° S
Elevation
-84.504°
Doppler factor
1
Orbital elements
Apogee altitude
448.423 km
Perigee altitude
446.866 km
Semi-major axis
6,825.782 km
Eccentricity
0.00011
Inclination
53.1591°
RAAN
354.4024°
Arg. of periapsis
100.1432°
True anomaly
16.47371°
Mean anomaly
16.47°
Eccentric anomaly
16.47185°
Mean motion
3.8487 °/min
Orbital period
93.54 mins
BSTAR
0.001812
Loading maneuver chart data...
Loading SW <> Apogee altitude chart data...
Loading historical data...
Loading historical data...
Loading historical data...
Loading historical data...
Loading historical data...
Loading historical data...
Loading historical data...
|